SP5IZJ-2 Weather Reports


Display with metric or nautical units.
time (UTC)temp
F
wind
direction
speed
MPH
gust
MPH
rain 1hr
in
rain 24hr
in
rain mn
in
humidity
%
barometer
mb
20260508212138 47 135 0.0 0.0 0.00 0.00 0.00 89 1012.4
20260508211438 47 135 0.0 0.0 0.00 0.00 0.00 89 1012.4
20260508210738 47 135 0.0 0.0 0.00 0.00 0.00 89 1012.4
20260508210038 47 135 0.0 0.0 0.00 0.00 0.00 89 1012.4
20260508205338 47 135 0.0 0.0 0.00 0.00 0.00 89 1012.4
20260508203939 47 113 0.0 0.0 0.00 0.00 0.00 89 1012.4
20260508201139 47 135 0.0 0.0 0.00 0.00 0.00 88 1012.2
20260508200439 47 135 0.0 0.0 0.00 0.00 0.00 88 1012.1
20260508195741 47 135 0.0 0.0 0.00 0.00 0.00 88 1012.0
20260508194340 47 135 0.0 0.0 0.00 0.00 0.00 88 1012.0
20260508193641 47 158 0.0 0.0 0.00 0.00 0.00 88 1012.0
20260508192940 47 158 0.0 0.0 0.00 0.00 0.00 88 1012.0
20260508192240 47 158 0.0 0.0 0.00 0.00 0.00 88 1011.9
20260508191541 47 158 0.0 0.0 0.00 0.00 0.00 87 1012.0
20260508190841 47 359 0.0 0.0 0.00 0.00 0.00 87 1012.1
20260508190141 47 158 0.0 1.0 0.00 0.00 0.00 87 1012.0
20260508185443 47 135 0.0 0.0 0.00 0.00 0.00 87 1012.1
20260508184741 47 135 0.0 0.0 0.00 0.00 0.00 86 1011.9
20260508184042 47 158 0.0 0.0 0.00 0.00 0.00 86 1012.0
20260508182642 48 158 0.0 0.0 0.00 0.00 0.00 86 1011.8
20260508181952 48 158 0.0 0.0 0.00 0.00 0.00 85 1011.8
20260508181942 48 158 0.0 0.0 0.00 0.00 0.00 85 1011.8
20260508180457 48 158 0.0 1.0 0.00 0.00 0.00 84 1011.6
20260508173743 49 158 0.0 1.0 0.00 0.00 0.00 83 1011.3
20260508170944 50 135 0.0 0.0 0.00 0.00 0.00 80 1011.1
20260508170245 50 135 0.0 3.0 0.00 0.00 0.00 80 1010.9
20260508165544 50 135 1.0 4.0 0.00 0.00 0.00 78 1010.9
20260508162700 53 113 0.0 3.0 0.00 0.00 0.00 75 1011.0
20260508162007 53 90 0.0 1.0 0.00 0.00 0.00 76 1010.9
20260508162000 53 90 0.0 1.0 0.00 0.00 0.00 76 1010.9
20260508160600 53 90 0.0 1.0 0.00 0.00 0.00 75 1010.9
20260508155901 53 135 0.0 3.0 0.00 0.00 0.00 75 1010.9
20260508155201 53 359 0.0 0.0 0.00 0.00 0.00 75 1010.8
20260508154503 53 135 0.0 5.0 0.00 0.00 0.00 75 1010.8
20260508153801 53 135 1.0 6.0 0.00 0.00 0.00 75 1010.8
20260508153101 53 135 0.0 4.0 0.00 0.00 0.00 74 1010.7
20260508151702 53 135 0.0 4.0 0.00 0.00 0.00 74 1010.8
20260508151002 54 90 0.0 3.0 0.00 0.00 0.00 74 1010.7
20260508145602 53 135 1.0 4.0 0.00 0.00 0.00 74 1010.7
20260508144905 53 359 0.0 0.0 0.00 0.00 0.00 74 1010.8
20260508144203 53 113 1.0 4.0 0.00 0.00 0.00 74 1010.8
20260508142803 53 113 0.0 3.0 0.00 0.00 0.00 76 1010.8
20260508142103 53 68 0.0 3.0 0.00 0.00 0.00 75 1010.8
20260508141405 53 135 0.0 0.0 0.00 0.00 0.00 74 1010.8
20260508140703 54 135 0.0 0.0 0.00 0.00 0.00 74 1010.8
20260508135306 54 158 0.0 4.0 0.00 0.00 0.00 75 1010.9
20260508134604 53 135 0.0 4.0 0.00 0.00 0.00 76 1010.8
20260508133906 53 135 1.0 3.0 0.00 0.00 0.00 76 1010.8
20260508133204 53 158 0.0 3.0 0.00 0.00 0.00 76 1010.9
20260508132504 53 135 1.0 5.0 0.00 0.00 0.00 75 1010.8
20260508130405 54 135 1.0 5.0 0.00 0.00 0.00 74 1010.7
20260508125705 55 68 2.0 8.0 0.00 0.00 0.00 72 1010.6
20260508123607 55 68 2.0 5.0 0.00 0.00 0.00 72 1010.8
20260508122907 55 68 0.0 3.0 0.00 0.00 0.00 74 1010.8
20260508121514 55 68 1.0 4.0 0.00 0.00 0.00 73 1010.8
20260508120112 55 45 0.0 2.0 0.00 0.00 0.00 72 1010.7
20260508114007 56 68 0.0 3.0 0.00 0.00 0.00 73 1010.6
20260508113309 56 135 0.0 1.0 0.00 0.00 0.00 75 1010.7
20260508112607 55 68 0.0 2.0 0.00 0.00 0.00 77 1010.6
20260508111910 54 68 0.0 0.0 0.00 0.00 0.00 78 1010.8
20260508111210 53 90 0.0 0.0 0.00 0.00 0.00 79 1010.7
20260508110508 53 90 0.0 2.0 0.00 0.00 0.00 79 1010.7
20260508105809 52 68 0.0 3.0 0.00 0.00 0.00 79 1010.5
20260508105109 53 45 0.0 6.0 0.00 0.00 0.00 78 1010.5
20260508103724 53 135 0.0 4.0 0.00 0.00 0.00 77 1010.4
20260508102310 54 90 0.0 4.0 0.00 0.00 0.00 75 1010.5
20260508101610 55 68 1.0 4.0 0.00 0.00 0.00 73 1010.5
20260508100909 56 45 0.0 4.0 0.00 0.00 0.00 73 1010.4
20260508100211 56 359 0.0 0.0 0.00 0.00 0.00 73 1010.4
20260508095510 57 45 0.0 4.0 0.00 0.00 0.00 73 1010.3
20260508094810 57 90 0.0 5.0 0.00 0.00 0.00 74 1010.5
20260508094110 57 359 0.0 0.0 0.00 0.00 0.00 76 1010.4
20260508093410 56 359 0.0 0.0 0.00 0.00 0.00 78 1010.4
20260508092012 54 135 1.0 7.0 0.00 0.00 0.00 77 1010.4
20260508091311 55 135 1.0 4.0 0.00 0.00 0.00 79 1010.4
20260508090612 53 158 1.0 5.0 0.00 0.00 0.00 81 1010.3
20260508085212 53 135 2.0 7.0 0.00 0.00 0.00 80 1010.2
20260508084511 53 135 0.0 3.0 0.00 0.00 0.00 82 1010.3
20260508083113 52 135 1.0 6.0 0.00 0.00 0.00 83 1010.1
20260508082413 52 158 1.0 6.0 0.00 0.00 0.00 83 1010.4
20260508081713 52 359 0.0 0.0 0.00 0.00 0.00 84 1010.3
20260508081013 51 359 0.0 0.0 0.00 0.00 0.00 85 1010.0
20260508080314 51 135 0.0 3.0 0.00 0.00 0.00 85 1010.1
20260508075617 51 135 0.0 4.0 0.00 0.00 0.00 85 1010.2
20260508074213 50 135 0.0 1.0 0.00 0.00 0.00 86 1010.1
20260508072818 50 158 0.0 4.0 0.00 0.00 0.00 87 1010.3
20260508072116 49 135 0.0 4.0 0.00 0.00 0.00 87 1010.1
20260508071416 49 135 2.0 6.0 0.00 0.00 0.00 87 1010.0
20260508070021 49 158 1.0 6.0 0.00 0.00 0.00 87 1009.9
20260508065314 49 359 0.0 0.0 0.00 0.00 0.00 87 1009.7
20260508063215 49 135 3.0 6.0 0.00 0.00 0.00 88 1009.8
20260508061822 48 158 3.0 7.0 0.00 0.00 0.00 88 1009.6
20260508060415 49 158 1.0 5.0 0.00 0.00 0.00 89 1009.6
20260508055716 48 158 0.0 0.0 0.00 0.00 0.00 89 1009.5
20260508053616 48 158 0.0 0.0 0.00 0.00 0.00 89 1009.4
20260508052306 48 158 0.0 0.0 0.00 0.00 0.00 90 1009.3
20260508050817 48 135 0.0 0.0 0.00 0.00 0.00 90 1009.2
20260508050117 48 158 0.0 0.0 0.00 0.00 0.00 90 1009.1
20260508045417 47 135 0.0 0.0 0.00 0.00 0.00 90 1009.0
20260508044720 47 135 0.0 0.0 0.00 0.00 0.00 90 1009.0
20260508043318 47 158 0.0 0.0 0.00 0.00 0.00 90 1009.1
20260508042618 47 158 0.0 0.0 0.00 0.00 0.00 90 1009.0
20260508041918 47 158 0.0 0.0 0.00 0.00 0.00 90 1009.1
20260508041218 47 158 0.0 0.0 0.00 0.00 0.00 89 1009.0
20260508035819 47 158 0.0 0.0 0.00 0.00 0.00 89 1008.9
20260508033721 47 135 0.0 0.0 0.00 0.00 0.00 89 1008.7
20260508033019 47 135 0.0 0.0 0.00 0.00 0.00 88 1008.9
20260508032322 47 135 0.0 0.0 0.00 0.00 0.00 88 1009.0
20260508031620 47 158 0.0 0.0 0.00 0.00 0.00 88 1008.9
20260508030920 47 158 0.0 0.0 0.00 0.00 0.00 87 1008.9
20260508030220 47 135 0.0 0.0 0.00 0.00 0.00 87 1008.7
20260508024820 47 135 0.0 0.0 0.00 0.00 0.00 87 1008.6
20260508024125 47 135 0.0 2.0 0.00 0.00 0.00 86 1008.5
20260508023421 47 158 0.0 3.0 0.00 0.00 0.00 86 1008.5
20260508022723 48 135 0.0 4.0 0.00 0.00 0.00 86 1008.6
20260508022021 48 135 0.0 2.0 0.00 0.00 0.00 86 1008.7
20260508021321 48 359 0.0 0.0 0.00 0.00 0.00 86 1008.7
20260508020621 212 359 0.0 0.0 0.00 0.00 0.00 100
20260508015921 48 135 0.0 3.0 0.00 0.00 0.00 86 1008.7
20260508015222 48 135 0.0 5.0 0.00 0.00 0.00 86 1008.6
20260508014522 48 158 0.0 3.0 0.00 0.00 0.00 85 1008.5
20260508013822 48 158 0.0 4.0 0.00 0.00 0.00 85 1008.6
20260508013207 48 158 1.0 4.0 0.00 0.00 0.00 85 1008.5
20260508012507 48 158 1.0 7.0 0.00 0.00 0.00 85 1008.4
20260508011108 49 359 0.0 0.0 0.00 0.00 0.00 84 1008.5
20260508005708 49 359 0.0 0.0 0.00 0.00 0.00 84 1008.3
20260508004308 49 158 1.0 3.0 0.00 0.00 0.00 84 1008.3
20260508003609 49 158 0.0 2.0 0.00 0.00 0.00 84 1008.3
20260508002909 49 135 1.0 4.0 0.00 0.00 0.00 84 1008.2
20260508002209 49 359 0.0 0.0 0.00 0.00 0.00 84 1008.2
20260508001424 49 158 1.0 4.0 0.00 0.00 0.00 84 1008.3
20260508000724 49 359 0.0 0.0 0.00 0.00 0.00 84 1008.3
20260507235410 49 158 3.0 6.0 0.00 0.02 0.00 84 1008.1
20260507234710 49 158 2.0 7.0 0.00 0.02 0.00 84 1008.1
20260507233310 49 158 1.0 4.0 0.00 0.02 0.00 84 1008.1
20260507232612 49 158 1.0 3.0 0.00 0.02 0.00 84 1008.0
20260507231128 50 158 1.0 7.0 0.00 0.02 0.00 84 1008.0
20260507230433 50 158 2.0 8.0 0.00 0.02 0.00 84 1008.1
20260507225026 50 158 2.0 8.0 0.00 0.06 0.00 84 1008.0
20260507224326 50 135 3.0 8.0 0.00 0.06 0.00 84 1008.0
20260507223627 50 158 4.0 8.0 0.00 0.06 0.00 85 1008.0
20260507222927 50 135 2.0 5.0 0.00 0.06 0.00 85 1007.9
20260507221527 50 158 2.0 7.0 0.00 0.06 0.00 85 1007.7
20260507220832 50 158 1.0 5.0 0.00 0.06 0.00 85 1007.9
20260507220132 50 135 1.0 4.0 0.00 0.06 0.00 85 1007.9
20260507215428 50 135 2.0 4.0 0.00 0.06 0.00 85 1007.6
20260507214748 54 135 0.0 4.0 0.00 0.06 0.00 85 1007.7
20260507214741 50 135 0.0 4.0 0.00 0.06 0.00 85 1007.7
20260507214032 50 135 0.0 4.0 0.00 0.06 0.00 85 1007.8